Regional Weather Roundup
Issued by NWS Portland, ME

Current Version | Previous Version | Text Only | Print | Product List | Glossary Off
Versions: 1 2 3 4 5 6 7 8 9 10 11 12 13 14 15 16 17 18 19 20 21 22 23 24 25 26 27 28 29 30 31 32 33 34 35 36 37 38 39 40 41 42 43 44 45 46 47 48 49 50
000 ASUS41 KGYX 232310 RWRGYX WEATHER ROUNDUP FOR MAINE AND NEW HAMPSHIRE NATIONAL WEATHER SERVICE GRAY ME 700 PM EDT SAT JUN 23 2018 MEZ002-005-006-010-012-015-018-020-021-024-026-027-029-240000- MAINE CITY SKY/WX TMP DP RH WIND PRES REMARKS PORTLAND CLOUDY 57 54 89 VRB5 29.87F SANFORD CLOUDY 55 52 89 NW6 29.89R BAR HARBOR CLOUDY 57 54 89 E3 29.89F WISCASSET LGT RAIN 57 56 96 CALM 29.88F ROCKLAND CLOUDY 58 57 97 NE5 29.87F FRYEBURG RAIN 53 53 100 SE3 29.89F FOG LEWISTONAUBURN LGT RAIN 52 50 93 NW6 29.89F AUGUSTA LGT RAIN 53 50 89 S3 29.89F FOG WATERVILLE LGT RAIN 57 53 86 CALM 29.86F BANGOR LGT RAIN 61 53 75 SW6 29.89S GREENVILLE N/A 61 50 67 S5 29.85F MILLINOCKET PTSUNNY 66 48 52 VRB5 29.87F HOULTON CLOUDY 65 50 58 S8 29.84F PRESQUE ISLE FAIR 67 50 54 S12 29.83S FRENCHVILLE FAIR 72 55 55 S14G21 29.78F CARIBOU FAIR 68 49 50 S7 29.81S $$ NHZ002-005-008-009-011-012-014-240000- NEW HAMPSHIRE CITY SKY/WX TMP DP RH WIND PRES REMARKS PORTSMOUTH CLOUDY 59 53 81 N8 29.86R ROCHESTER LGT RAIN 56 52 86 N7 29.87S NASHUA LGT RAIN 58 55 90 NE6 29.87S FOG MANCHESTER LGT RAIN 59 53 80 NE6 29.85F CONCORD CLOUDY 56 53 90 NE5 29.88F LACONIA LGT RAIN 54 52 93 E8 29.88F PLYMOUTH N/A 55 53 94 CALM 29.87F BERLIN LGT RAIN 55 53 93 CALM 29.86F WHITEFIELD LGT RAIN 58 55 90 E6 29.84F JAFFREY CLOUDY 56 54 93 CALM 29.88S KEENE CLOUDY 57 54 89 NE3 29.87F LEBANON CLOUDY 57 53 86 CALM 29.86F FOG MT WASHINGTON RAIN 48 48 100 SW18 N/A VSB 1/16 $$ VTZ005-007-008-240000- VERMONT CITY SKY/WX TMP DP RH WIND PRES REMARKS ST JOHNSBURY N/A 56 54 93 MISG 29.83F MONTPELIER CLOUDY 55 54 96 S5 29.89F BURLINGTON CLOUDY 63 55 75 S9 29.81F $$ MAZ007-012-024-CTZ003-RIZ002-NYZ038-NYZ072-240000- SOUTHERN NEW ENGLAND AND NY CITY SKY/WX TMP DP RH WIND PRES REMARKS BOSTON DRIZZLE 60 57 89 NE9 29.85S FOG WORCESTER FOG 56 56 100 NE6 29.85F VSB 1/4 NANTUCKET CLOUDY 61 60 97 S7 29.80R FOG PROVIDENCE CLOUDY 61 58 90 NE8 29.83F HARTFORD CLOUDY 60 58 92 N8 29.83S FOG ALBANY CLOUDY 61 55 81 E3 29.83F NEW YORK CITY CLOUDY 65 60 84 NE7 29.81F $$ ANZ081-ANZ082-ANZ150-NHZ014-MEZ023>029-240000- COASTAL MARINE OBSERVATIONS STATION/POSITION TIME TEMP WIND PRES WAVE AIR SEA DIR/SP/G HT/PER (UTC) (F) (DEG/KT/KT) (MB) (FT/S) MOUNT DESERT ROC 2300 54 60/ 13/ 14 1011.4F MATINICUS ROCK 2300 53 40/ 12/ 12 1010.9F ISLE OF SHOALS 2300 58 30/ 10/ 11 1010.7R JEFFREYS LEDGE 2236 61 N/A 3/ 5 $$ .............KEY.............. WCI - WIND CHILL TC - TEMPERATURE IN CELSIUS VSB - VISIBILITY IN MILES HX - HEAT INDEX FAIR- INDICATES FEW OR NO CLOUDS BELOW 12,000 FT, WITH NO SIGNIFICANT WEATHER AND/OR OBSTRUCTIONS TO VISIBILITY.

USA.gov is the U.S. government's official web portal to all federal, state and local government web resources and services.